{"data":{"norad_id":44339,"epoch":"2026-09-20T02:48:08.033760Z","epoch_age_seconds":90869,"freshness":"FRESH","line1":"1 44339U 19036A   26263.11675965  .00009864  00000+0  90741-3 0  9991","line2":"2 44339  23.9934 199.1148 0005470  60.8600 299.2447 14.92594074387666","mean_motion":14.92594074,"eccentricity":0.000547,"inclination_deg":23.9934,"raan_deg":199.1148,"arg_perigee_deg":60.86,"mean_anomaly_deg":299.2447,"bstar":0.00090741,"rev_number":38766,"period_min":96.47633104565,"perigee_km":586.03905996268,"apogee_km":593.66203834145,"semimajor_km":6967.9875491521,"source":"CELESTRAK","updated_at":"2026-09-20T09:00:14.460575Z"}}